FREGAT R/B, 42720

Orbit data source: Space-Track

FREGAT R/B, 42720 is space debris originally from a launch on Thu, 25 May 2017 UTC launched from the Plesetsk Missile And Space Complex (PKMTR). Debris objects in space refer to the collection of defunct objects orbiting the Earth. Examples of debris include non-operational satellites, rocket bodies, and fragments generated from explosions, collisions, or faulty payload assembly.

Loading next visibility...
Identifier
42720, 2017-027B
Orbit
Molniya
Country
Flag of CISCIS
Related business
Manufacturer
Lavochkin
Mission
Spacecraft
Bus & Motor
FREGAT, Unknown motor
Mass
1,000 kg wet, 1,000 kg dry
Launch date (UTC)
2017-05-25 (8 years ago)
Launch vehicle
Unknown
Launch site
Plesetsk Missile And Space Complex (PKMTR)
Object type
Payload
Rocket body
Debris
Shape & HBR
Cyl, 1.7 m
Radar Cross Section
8.354 m², Large (>1 m²)

Expand to show TLE details & history
Last TLE update: 5 days ago

TLE from 5 days ago
0 FREGAT R/B
1 42720U 17027B   25307.13694568  .00000971  00000-0 -57132-2 0  9999
2 42720  62.5596 262.9668 7189098 266.0368  16.8136  2.01905917 62267
Epoch: 2025-11-03T03:17Z
TLE epoch observation values (Epoch: 2025-11-03T03:17:12.106Z)
Latitude
0.00024°
Longitude
170.96049°
Altitude
7,061.291 km
Speed
6.652 km/s
True Right ascension
17h 31m 36s
True Declination
0° 00' 01"
Sunlit
Object was in daylight at epoch
Visualization orbit readout
Latitude
Unknown
Longitude
Unknown
Altitude
Unknown
Speed
Unknown
Apparent Right ascension
Unknown
Apparent Declination
Unknown
Sunlit
N/A
Visualization observer readout
Local Sidereal Time
19:02:26
Azimuth
Unknown
Elevation
Unknown
Doppler factor
Unknown
Orbital elements
Apogee altitude
39,072.613 km
Perigee altitude
1,054.342 km
Semi-major axis
26,441.614 km
Eccentricity
0.71891
Inclination
62.5596°
RAAN
262.9668°
Arg. of periapsis
266.0368°
True anomaly
93.98773°
Mean anomaly
16.8136°
Eccentric anomaly
46.87906°
Mean motion
0.50479 °/min
Orbital period
713.17 mins
BSTAR
-0.0057132
Loading maneuver chart data...
Computing Atmospheric mass density...
Loading historical data...
Loading historical data...
Loading historical data...
Loading historical data...
Loading historical data...
Loading historical data...
Loading historical data...
Other satellites on launch #27 in the year 2017 (2017-05-25 UTC)

Documentation

Showing up to 5 results
|